owner,sensor,date,latitude,longitude,vertical_datum,direction_of_sea_water_velocity,sea_water_speed,upward_sea_water_velocity,qcFlag 
TABS,ioos:station:wmo:42049:1,2002-12-01T00:00:00Z,28.3507,-96.0058,2.0,182.3318078,19.90648638,-99999.0,'11111222,11111222,99999999' 
TABS,ioos:station:wmo:42049:1,2002-12-01T00:30:00Z,28.3507,-96.0058,2.0,184.9932568,20.90935915,-99999.0,'11111222,11111222,99999999' 
TABS,ioos:station:wmo:42049:1,2002-12-01T01:00:00Z,28.3507,-96.0058,2.0,183.8175332,20.72599334,-99999.0,'11111222,11111222,99999999' 
TABS,ioos:station:wmo:42049:1,2002-12-01T01:30:00Z,28.3507,-96.0058,2.0,181.7250404,18.26828125,-99999.0,'11111222,11111222,99999999' 
TABS,ioos:station:wmo:42049:1,2002-12-01T02:00:00Z,28.3507,-96.0058,2.0,188.6857616,21.71909989,-99999.0,'11111222,11111222,99999999' 
TABS,ioos:station:wmo:42049:1,2002-12-01T02:30:00Z,28.3507,-96.0058,2.0,190.7710856,20.65390278,-99999.0,'11111222,11111222,99999999' 
TABS,ioos:station:wmo:42049:1,2002-12-01T03:00:00Z,28.3507,-96.0058,2.0,200.5066396,20.46699294,-99999.0,'11111222,11111222,99999999' 
TABS,ioos:station:wmo:42049:1,2002-12-01T03:30:00Z,28.3507,-96.0058,2.0,202.3781988,18.62247298,-99999.0,'11111222,11111222,99999999' 
TABS,ioos:station:wmo:42049:1,2002-12-01T04:00:00Z,28.3507,-96.0058,2.0,203.8877662,19.53324602,-99999.0,'11111222,11111222,99999999' 
TABS,ioos:station:wmo:42049:1,2002-12-01T04:30:00Z,28.3507,-96.0058,2.0,208.3704216,18.30907152,-99999.0,'11111222,11111222,99999999' 
TABS,ioos:station:wmo:42049:1,2002-12-01T05:00:00Z,28.3507,-96.0058,2.0,209.4600226,19.47865498,-99999.0,'11111222,11111222,99999999' 
TABS,ioos:station:wmo:42049:1,2002-12-01T05:30:00Z,28.3507,-96.0058,2.0,209.7634672,15.06774037,-99999.0,'11111222,11111222,99999999' 
TABS,ioos:station:wmo:42049:1,2002-12-01T06:00:00Z,28.3507,-96.0058,2.0,209.2761362,19.5696142,-99999.0,'11111222,11111222,99999999' 
TABS,ioos:station:wmo:42049:1,2002-12-01T06:30:00Z,28.3507,-96.0058,2.0,208.1424641,20.62883904,-99999.0,'11111222,11111222,99999999' 
TABS,ioos:station:wmo:42049:1,2002-12-01T07:00:00Z,28.3507,-96.0058,2.0,211.9928047,19.76154093,-99999.0,'11111222,11111222,99999999' 
TABS,ioos:station:wmo:42049:1,2002-12-01T07:30:00Z,28.3507,-96.0058,2.0,209.3694566,20.83828208,-99999.0,'11111222,11111222,99999999' 
TABS,ioos:station:wmo:42049:1,2002-12-01T08:00:00Z,28.3507,-96.0058,2.0,211.9414715,24.81774567,-99999.0,'11111222,11111222,99999999' 
TABS,ioos:station:wmo:42049:1,2002-12-01T08:30:00Z,28.3507,-96.0058,2.0,218.5185474,28.56582924,-99999.0,'11111222,11111222,99999999' 
TABS,ioos:station:wmo:42049:1,2002-12-01T09:00:00Z,28.3507,-96.0058,2.0,213.3412561,30.09304239,-99999.0,'11111222,11111222,99999999' 
TABS,ioos:station:wmo:42049:1,2002-12-01T09:30:00Z,28.3507,-96.0058,2.0,216.4042581,30.04299086,-99999.0,'11111222,11111222,99999999' 
TABS,ioos:station:wmo:42049:1,2002-12-01T10:00:00Z,28.3507,-96.0058,2.0,217.8808651,32.52306566,-99999.0,'11111222,11111222,99999999' 
TABS,ioos:station:wmo:42049:1,2002-12-01T10:30:00Z,28.3507,-96.0058,2.0,222.3472394,27.65629223,-99999.0,'11111222,11111222,99999999' 
TABS,ioos:station:wmo:42049:1,2002-12-01T11:00:00Z,28.3507,-96.0058,2.0,237.2738171,29.33670056,-99999.0,'11111222,11111222,99999999' 
TABS,ioos:station:wmo:42049:1,2002-12-01T11:30:00Z,28.3507,-96.0058,2.0,234.7923306,34.88068377,-99999.0,'11111222,11111222,99999999' 
TABS,ioos:station:wmo:42049:1,2002-12-01T12:00:00Z,28.3507,-96.0058,2.0,241.58957,35.14237471,-99999.0,'11111222,11111222,99999999' 
TABS,ioos:station:wmo:42049:1,2002-12-01T12:30:00Z,28.3507,-96.0058,2.0,235.5806028,37.93069601,-99999.0,'11111222,11111222,99999999' 
TABS,ioos:station:wmo:42049:1,2002-12-01T13:00:00Z,28.3507,-96.0058,2.0,233.7601574,36.53821151,-99999.0,'11111222,11111222,99999999' 
TABS,ioos:station:wmo:42049:1,2002-12-01T13:30:00Z,28.3507,-96.0058,2.0,242.2064811,37.76691939,-99999.0,'11111222,11111222,99999999' 
TABS,ioos:station:wmo:42049:1,2002-12-01T14:00:00Z,28.3507,-96.0058,2.0,251.8111047,44.11418139,-99999.0,'11111222,11111222,99999999' 
TABS,ioos:station:wmo:42049:1,2002-12-01T14:30:00Z,28.3507,-96.0058,2.0,251.5772025,43.38328826,-99999.0,'11111222,11111222,99999999' 
TABS,ioos:station:wmo:42049:1,2002-12-01T15:00:00Z,28.3507,-96.0058,2.0,253.2517152,40.60227087,-99999.0,'11111222,11111222,99999999' 
TABS,ioos:station:wmo:42049:1,2002-12-01T15:30:00Z,28.3507,-96.0058,2.0,258.6870142,42.26106601,-99999.0,'11111222,11111222,99999999' 
TABS,ioos:station:wmo:42049:1,2002-12-01T16:00:00Z,28.3507,-96.0058,2.0,257.1067854,43.87615526,-99999.0,'11111222,11111222,99999999' 
TABS,ioos:station:wmo:42049:1,2002-12-01T16:30:00Z,28.3507,-96.0058,2.0,259.7287668,45.2043582,-99999.0,'11111222,11111222,99999999' 
TABS,ioos:station:wmo:42049:1,2002-12-01T17:00:00Z,28.3507,-96.0058,2.0,258.3790103,45.5741374,-99999.0,'11111222,11111222,99999999' 
TABS,ioos:station:wmo:42049:1,2002-12-01T17:30:00Z,28.3507,-96.0058,2.0,255.9127614,49.42635431,-99999.0,'11111222,11111222,99999999' 
TABS,ioos:station:wmo:42049:1,2002-12-01T18:00:00Z,28.3507,-96.0058,2.0,259.2899398,52.789516,-99999.0,'11111222,11111222,99999999' 
TABS,ioos:station:wmo:42049:1,2002-12-01T18:30:00Z,28.3507,-96.0058,2.0,258.7318586,58.59951706,-99999.0,'11111222,11111222,99999999' 
TABS,ioos:station:wmo:42049:1,2002-12-01T19:00:00Z,28.3507,-96.0058,2.0,257.6229378,56.77957819,-99999.0,'11111222,11111222,99999999' 
TABS,ioos:station:wmo:42049:1,2002-12-01T19:30:00Z,28.3507,-96.0058,2.0,257.171009,60.53093424,-99999.0,'11111222,11111222,99999999' 
TABS,ioos:station:wmo:42049:1,2002-12-01T20:00:00Z,28.3507,-96.0058,2.0,256.6474834,61.14273873,-99999.0,'11111222,11111222,99999999' 
TABS,ioos:station:wmo:42049:1,2002-12-01T20:30:00Z,28.3507,-96.0058,2.0,257.5716037,59.80131186,-99999.0,'11111222,11111222,99999999' 
TABS,ioos:station:wmo:42049:1,2002-12-01T21:00:00Z,28.3507,-96.0058,2.0,255.1472931,59.25988947,-99999.0,'11111222,11111222,99999999' 
TABS,ioos:station:wmo:42049:1,2002-12-01T21:30:00Z,28.3507,-96.0058,2.0,256.6511764,64.45121023,-99999.0,'11111222,11111222,99999999' 
TABS,ioos:station:wmo:42049:1,2002-12-01T22:00:00Z,28.3507,-96.0058,2.0,256.2033368,60.80421449,-99999.0,'11111222,11111222,99999999' 
TABS,ioos:station:wmo:42049:1,2002-12-01T22:30:00Z,28.3507,-96.0058,2.0,254.7066272,61.04149736,-99999.0,'11111222,11111222,99999999' 
TABS,ioos:station:wmo:42049:1,2002-12-01T23:00:00Z,28.3507,-96.0058,2.0,255.9057704,57.90298438,-99999.0,'11111222,11111222,99999999' 
TABS,ioos:station:wmo:42049:1,2002-12-01T23:30:00Z,28.3507,-96.0058,2.0,256.3960286,59.09791536,-99999.0,'11111222,11111222,99999999' 
TABS,ioos:station:wmo:42049:1,2002-12-02T00:00:00Z,28.3507,-96.0058,2.0,256.0945257,55.09453693,-99999.0,'11111222,11111222,99999999' 
TABS,ioos:station:wmo:42049:1,2002-12-02T00:30:00Z,28.3507,-96.0058,2.0,257.2201465,55.28959486,-99999.0,'11111222,11111222,99999999' 
TABS,ioos:station:wmo:42049:1,2002-12-02T01:00:00Z,28.3507,-96.0058,2.0,256.2637812,56.43396495,-99999.0,'11111222,11111222,99999999' 
TABS,ioos:station:wmo:42049:1,2002-12-02T01:30:00Z,28.3507,-96.0058,2.0,257.6700303,53.34026809,-99999.0,'11111222,11111222,99999999' 
TABS,ioos:station:wmo:42049:1,2002-12-02T02:00:00Z,28.3507,-96.0058,2.0,256.3506697,53.8198848,-99999.0,'11111222,11111222,99999999' 
TABS,ioos:station:wmo:42049:1,2002-12-02T02:30:00Z,28.3507,-96.0058,2.0,253.6919651,49.75161706,-99999.0,'11111222,11111222,99999999' 
TABS,ioos:station:wmo:42049:1,2002-12-02T03:00:00Z,28.3507,-96.0058,2.0,252.9033161,45.88768571,-99999.0,'11111222,11111222,99999999' 
TABS,ioos:station:wmo:42049:1,2002-12-02T03:30:00Z,28.3507,-96.0058,2.0,253.2851185,46.76587003,-99999.0,'11111222,11111222,99999999' 
TABS,ioos:station:wmo:42049:1,2002-12-02T04:00:00Z,28.3507,-96.0058,2.0,249.2328578,40.41575188,-99999.0,'11111222,11111222,99999999' 
TABS,ioos:station:wmo:42049:1,2002-12-02T04:30:00Z,28.3507,-96.0058,2.0,249.1437448,35.78465034,-99999.0,'11111222,11111222,99999999' 
TABS,ioos:station:wmo:42049:1,2002-12-02T05:00:00Z,28.3507,-96.0058,2.0,245.4372225,34.42516812,-99999.0,'11111222,11111222,99999999' 
TABS,ioos:station:wmo:42049:1,2002-12-02T05:30:00Z,28.3507,-96.0058,2.0,242.0763703,32.07422641,-99999.0,'11111222,11111222,99999999' 
TABS,ioos:station:wmo:42049:1,2002-12-02T06:00:00Z,28.3507,-96.0058,2.0,238.6292461,32.1379293,-99999.0,'11111222,11111222,99999999' 
TABS,ioos:station:wmo:42049:1,2002-12-02T06:30:00Z,28.3507,-96.0058,2.0,238.9018448,31.51981123,-99999.0,'11111222,11111222,99999999' 
TABS,ioos:station:wmo:42049:1,2002-12-02T07:00:00Z,28.3507,-96.0058,2.0,241.7947498,33.59950148,-99999.0,'11111222,11111222,99999999' 
TABS,ioos:station:wmo:42049:1,2002-12-02T07:30:00Z,28.3507,-96.0058,2.0,240.9483546,33.60843347,-99999.0,'11111222,11111222,99999999' 
TABS,ioos:station:wmo:42049:1,2002-12-02T08:00:00Z,28.3507,-96.0058,2.0,240.8594306,31.85141284,-99999.0,'11111222,11111222,99999999' 
TABS,ioos:station:wmo:42049:1,2002-12-02T08:30:00Z,28.3507,-96.0058,2.0,239.6318905,31.4905589,-99999.0,'11111222,11111222,99999999' 
TABS,ioos:station:wmo:42049:1,2002-12-02T09:00:00Z,28.3507,-96.0058,2.0,238.2512435,31.43349328,-99999.0,'11111222,11111222,99999999' 
TABS,ioos:station:wmo:42049:1,2002-12-02T09:30:00Z,28.3507,-96.0058,2.0,236.3711324,30.98557084,-99999.0,'11111222,11111222,99999999' 
TABS,ioos:station:wmo:42049:1,2002-12-02T10:00:00Z,28.3507,-96.0058,2.0,239.2884097,30.74141994,-99999.0,'11111222,11111222,99999999' 
TABS,ioos:station:wmo:42049:1,2002-12-02T10:30:00Z,28.3507,-96.0058,2.0,239.1391535,30.45133823,-99999.0,'11111222,11111222,99999999' 
TABS,ioos:station:wmo:42049:1,2002-12-02T11:00:00Z,28.3507,-96.0058,2.0,231.3851487,25.68590664,-99999.0,'11111222,11111222,99999999' 
TABS,ioos:station:wmo:42049:1,2002-12-02T11:30:00Z,28.3507,-96.0058,2.0,233.7330245,28.8736004,-99999.0,'11111222,11111222,99999999' 
TABS,ioos:station:wmo:42049:1,2002-12-02T12:00:00Z,28.3507,-96.0058,2.0,232.2805666,29.01318666,-99999.0,'11111222,11111222,99999999' 
TABS,ioos:station:wmo:42049:1,2002-12-02T12:30:00Z,28.3507,-96.0058,2.0,240.5637856,31.96669673,-99999.0,'11111222,11111222,99999999' 
TABS,ioos:station:wmo:42049:1,2002-12-02T13:00:00Z,28.3507,-96.0058,2.0,244.7344025,29.96654968,-99999.0,'11111222,11111222,99999999' 
TABS,ioos:station:wmo:42049:1,2002-12-02T13:30:00Z,28.3507,-96.0058,2.0,243.4827376,26.60921833,-99999.0,'11111222,11111222,99999999' 
TABS,ioos:station:wmo:42049:1,2002-12-02T14:00:00Z,28.3507,-96.0058,2.0,251.7035636,27.39489186,-99999.0,'11111222,11111222,99999999' 
TABS,ioos:station:wmo:42049:1,2002-12-02T14:30:00Z,28.3507,-96.0058,2.0,243.4061508,27.02959304,-99999.0,'11111222,11111222,99999999' 
TABS,ioos:station:wmo:42049:1,2002-12-02T15:00:00Z,28.3507,-96.0058,2.0,249.9703752,28.64234976,-99999.0,'11111222,11111222,99999999' 
TABS,ioos:station:wmo:42049:1,2002-12-02T15:30:00Z,28.3507,-96.0058,2.0,260.004641,30.59432954,-99999.0,'11111222,11111222,99999999' 
TABS,ioos:station:wmo:42049:1,2002-12-02T16:00:00Z,28.3507,-96.0058,2.0,259.3560195,26.47550755,-99999.0,'11111222,11111222,99999999' 
TABS,ioos:station:wmo:42049:1,2002-12-02T16:30:00Z,28.3507,-96.0058,2.0,263.4451373,26.28178266,-99999.0,'11111222,11111222,99999999' 
TABS,ioos:station:wmo:42049:1,2002-12-02T17:00:00Z,28.3507,-96.0058,2.0,267.5859298,27.54443682,-99999.0,'11111222,11111222,99999999' 
TABS,ioos:station:wmo:42049:1,2002-12-02T17:30:00Z,28.3507,-96.0058,2.0,274.5534953,29.6034221,-99999.0,'11111222,11111222,99999999' 
TABS,ioos:station:wmo:42049:1,2002-12-02T18:00:00Z,28.3507,-96.0058,2.0,258.7567778,28.46627654,-99999.0,'11111222,11111222,99999999' 
TABS,ioos:station:wmo:42049:1,2002-12-02T18:30:00Z,28.3507,-96.0058,2.0,259.9655063,26.6882165,-99999.0,'11111222,11111222,99999999' 
TABS,ioos:station:wmo:42049:1,2002-12-02T19:00:00Z,28.3507,-96.0058,2.0,257.4779046,26.24424699,-99999.0,'11111222,11111222,99999999' 
TABS,ioos:station:wmo:42049:1,2002-12-02T19:30:00Z,28.3507,-96.0058,2.0,253.7930893,25.61801124,-99999.0,'11111222,11111222,99999999' 
TABS,ioos:station:wmo:42049:1,2002-12-02T20:00:00Z,28.3507,-96.0058,2.0,251.0647486,25.73243284,-99999.0,'11111222,11111222,99999999' 
TABS,ioos:station:wmo:42049:1,2002-12-02T20:30:00Z,28.3507,-96.0058,2.0,248.2132352,28.34453739,-99999.0,'11111222,11111222,99999999' 
TABS,ioos:station:wmo:42049:1,2002-12-02T21:00:00Z,28.3507,-96.0058,2.0,245.8759799,32.12567976,-99999.0,'11111222,11111222,99999999' 
TABS,ioos:station:wmo:42049:1,2002-12-02T21:30:00Z,28.3507,-96.0058,2.0,244.344786,29.84185651,-99999.0,'11111222,11111222,99999999' 
TABS,ioos:station:wmo:42049:1,2002-12-02T22:00:00Z,28.3507,-96.0058,2.0,242.5920677,27.98070764,-99999.0,'11111222,11111222,99999999' 
TABS,ioos:station:wmo:42049:1,2002-12-02T22:30:00Z,28.3507,-96.0058,2.0,242.5451031,31.68890184,-99999.0,'11111222,11111222,99999999' 
TABS,ioos:station:wmo:42049:1,2002-12-02T23:00:00Z,28.3507,-96.0058,2.0,245.8187877,30.63829303,-99999.0,'11111222,11111222,99999999' 
TABS,ioos:station:wmo:42049:1,2002-12-02T23:30:00Z,28.3507,-96.0058,2.0,247.7297002,29.97594369,-99999.0,'11111222,11111222,99999999' 
TABS,ioos:station:wmo:42049:1,2002-12-03T00:00:00Z,28.3507,-96.0058,2.0,243.9476976,29.46361315,-99999.0,'11111222,11111222,99999999' 
TABS,ioos:station:wmo:42049:1,2002-12-03T00:30:00Z,28.3507,-96.0058,2.0,244.3443694,30.41883134,-99999.0,'11111222,11111222,99999999' 
TABS,ioos:station:wmo:42049:1,2002-12-03T01:00:00Z,28.3507,-96.0058,2.0,241.9194083,30.44352969,-99999.0,'11111222,11111222,99999999' 
TABS,ioos:station:wmo:42049:1,2002-12-03T01:30:00Z,28.3507,-96.0058,2.0,241.0622699,31.33180493,-99999.0,'11111222,11111222,99999999' 
TABS,ioos:station:wmo:42049:1,2002-12-03T02:00:00Z,28.3507,-96.0058,2.0,240.2828753,30.34014008,-99999.0,'11111222,11111222,99999999' 
TABS,ioos:station:wmo:42049:1,2002-12-03T02:30:00Z,28.3507,-96.0058,2.0,239.0159011,29.48746852,-99999.0,'11111222,11111222,99999999' 
TABS,ioos:station:wmo:42049:1,2002-12-03T03:00:00Z,28.3507,-96.0058,2.0,236.4608693,28.36191989,-99999.0,'11111222,11111222,99999999' 
TABS,ioos:station:wmo:42049:1,2002-12-03T03:30:00Z,28.3507,-96.0058,2.0,233.5765875,28.21085784,-99999.0,'11111222,11111222,99999999' 
TABS,ioos:station:wmo:42049:1,2002-12-03T04:00:00Z,28.3507,-96.0058,2.0,225.1433541,28.19950709,-99999.0,'11111222,11111222,99999999' 
TABS,ioos:station:wmo:42049:1,2002-12-03T04:30:00Z,28.3507,-96.0058,2.0,221.9358915,24.21058653,-99999.0,'11111222,11111222,99999999' 
TABS,ioos:station:wmo:42049:1,2002-12-03T05:00:00Z,28.3507,-96.0058,2.0,220.1324691,25.33507055,-99999.0,'11111222,11111222,99999999' 
TABS,ioos:station:wmo:42049:1,2002-12-03T05:30:00Z,28.3507,-96.0058,2.0,217.5544672,25.26580495,-99999.0,'11111222,11111222,99999999' 
TABS,ioos:station:wmo:42049:1,2002-12-03T06:00:00Z,28.3507,-96.0058,2.0,213.8691834,29.23007013,-99999.0,'11111222,11111222,99999999' 
TABS,ioos:station:wmo:42049:1,2002-12-03T06:30:00Z,28.3507,-96.0058,2.0,211.2667809,26.2413662,-99999.0,'11111222,11111222,99999999' 
TABS,ioos:station:wmo:42049:1,2002-12-03T07:00:00Z,28.3507,-96.0058,2.0,203.9884753,24.37541795,-99999.0,'11111222,11111222,99999999' 
TABS,ioos:station:wmo:42049:1,2002-12-03T07:30:00Z,28.3507,-96.0058,2.0,205.0552703,25.97423531,-99999.0,'11111222,11111222,99999999' 
TABS,ioos:station:wmo:42049:1,2002-12-03T08:00:00Z,28.3507,-96.0058,2.0,202.2355141,25.47441854,-99999.0,'11111222,11111222,99999999' 
TABS,ioos:station:wmo:42049:1,2002-12-03T08:30:00Z,28.3507,-96.0058,2.0,195.1098993,29.11666533,-99999.0,'11111222,11111222,99999999' 
TABS,ioos:station:wmo:42049:1,2002-12-03T09:00:00Z,28.3507,-96.0058,2.0,191.1515731,30.55697138,-99999.0,'11111222,11111222,99999999' 
TABS,ioos:station:wmo:42049:1,2002-12-03T09:30:00Z,28.3507,-96.0058,2.0,189.8356267,32.78185474,-99999.0,'11111222,11111222,99999999' 
TABS,ioos:station:wmo:42049:1,2002-12-03T10:00:00Z,28.3507,-96.0058,2.0,185.9216809,36.15293211,-99999.0,'11111222,11111222,99999999' 
TABS,ioos:station:wmo:42049:1,2002-12-03T10:30:00Z,28.3507,-96.0058,2.0,184.7968893,38.38445779,-99999.0,'11111222,11111222,99999999' 
TABS,ioos:station:wmo:42049:1,2002-12-03T11:00:00Z,28.3507,-96.0058,2.0,182.2196722,38.20867441,-99999.0,'11111222,11111222,99999999' 
TABS,ioos:station:wmo:42049:1,2002-12-03T11:30:00Z,28.3507,-96.0058,2.0,180.5202392,38.53158964,-99999.0,'11111222,11111222,99999999' 
TABS,ioos:station:wmo:42049:1,2002-12-03T12:00:00Z,28.3507,-96.0058,2.0,177.5393808,40.99779506,-99999.0,'11111222,11111222,99999999' 
TABS,ioos:station:wmo:42049:1,2002-12-03T12:30:00Z,28.3507,-96.0058,2.0,174.5985567,42.38820709,-99999.0,'11111222,11111222,99999999' 
TABS,ioos:station:wmo:42049:1,2002-12-03T13:00:00Z,28.3507,-96.0058,2.0,169.9023088,43.0061298,-99999.0,'11111222,11111222,99999999' 
TABS,ioos:station:wmo:42049:1,2002-12-03T13:30:00Z,28.3507,-96.0058,2.0,166.2196757,43.4094598,-99999.0,'11111222,11111222,99999999' 
TABS,ioos:station:wmo:42049:1,2002-12-03T14:00:00Z,28.3507,-96.0058,2.0,163.6894954,45.7200175,-99999.0,'11111222,11111222,99999999' 
TABS,ioos:station:wmo:42049:1,2002-12-03T14:30:00Z,28.3507,-96.0058,2.0,165.5906239,46.57510279,-99999.0,'11111222,11111222,99999999' 
TABS,ioos:station:wmo:42049:1,2002-12-03T15:00:00Z,28.3507,-96.0058,2.0,165.0768454,48.1127031,-99999.0,'11111222,11111222,99999999' 
TABS,ioos:station:wmo:42049:1,2002-12-03T15:30:00Z,28.3507,-96.0058,2.0,174.3477534,42.84831385,-99999.0,'11111222,11111222,99999999' 
TABS,ioos:station:wmo:42049:1,2002-12-03T16:00:00Z,28.3507,-96.0058,2.0,176.0767523,39.17178576,-99999.0,'11111222,11111222,99999999' 
TABS,ioos:station:wmo:42049:1,2002-12-03T16:30:00Z,28.3507,-96.0058,2.0,234.5248118,44.52519736,-99999.0,'11111222,11111222,99999999' 
TABS,ioos:station:wmo:42049:1,2002-12-03T17:00:00Z,28.3507,-96.0058,2.0,241.1437664,46.76672428,-99999.0,'11111222,11111222,99999999' 
TABS,ioos:station:wmo:42049:1,2002-12-03T17:30:00Z,28.3507,-96.0058,2.0,245.8983218,44.83883362,-99999.0,'11111222,11111222,99999999' 
TABS,ioos:station:wmo:42049:1,2002-12-03T18:00:00Z,28.3507,-96.0058,2.0,245.2012552,39.60169946,-99999.0,'11111222,11111222,99999999' 
TABS,ioos:station:wmo:42049:1,2002-12-03T18:30:00Z,28.3507,-96.0058,2.0,245.483352,35.4016977,-99999.0,'11111222,11111222,99999999' 
TABS,ioos:station:wmo:42049:1,2002-12-03T19:00:00Z,28.3507,-96.0058,2.0,245.0316005,37.54922236,-99999.0,'11111222,11111222,99999999' 
TABS,ioos:station:wmo:42049:1,2002-12-03T19:30:00Z,28.3507,-96.0058,2.0,243.3731799,41.72505243,-99999.0,'11111222,11111222,99999999' 
TABS,ioos:station:wmo:42049:1,2002-12-03T20:00:00Z,28.3507,-96.0058,2.0,238.4696717,39.22021163,-99999.0,'11111222,11111222,99999999' 
TABS,ioos:station:wmo:42049:1,2002-12-03T20:30:00Z,28.3507,-96.0058,2.0,242.86907,34.88883202,-99999.0,'11111222,11111222,99999999' 
TABS,ioos:station:wmo:42049:1,2002-12-03T21:00:00Z,28.3507,-96.0058,2.0,248.0359773,36.06775014,-99999.0,'11111222,11111222,99999999' 
TABS,ioos:station:wmo:42049:1,2002-12-03T21:30:00Z,28.3507,-96.0058,2.0,245.9443769,35.74429325,-99999.0,'11111222,11111222,99999999' 
TABS,ioos:station:wmo:42049:1,2002-12-03T22:00:00Z,28.3507,-96.0058,2.0,242.7228795,41.76402758,-99999.0,'11111222,11111222,99999999' 
TABS,ioos:station:wmo:42049:1,2002-12-03T22:30:00Z,28.3507,-96.0058,2.0,244.7432918,49.14817799,-99999.0,'11111222,11111222,99999999' 
TABS,ioos:station:wmo:42049:1,2002-12-03T23:00:00Z,28.3507,-96.0058,2.0,243.6143367,52.74463101,-99999.0,'11111222,11111222,99999999' 
TABS,ioos:station:wmo:42049:1,2002-12-03T23:30:00Z,28.3507,-96.0058,2.0,243.1804558,53.43807818,-99999.0,'11111222,11111222,99999999' 
TABS,ioos:station:wmo:42049:1,2002-12-04T00:00:00Z,28.3507,-96.0058,2.0,246.9814759,52.11972084,-99999.0,'11111222,11111222,99999999' 
TABS,ioos:station:wmo:42049:1,2002-12-04T00:30:00Z,28.3507,-96.0058,2.0,246.2923316,52.20555622,-99999.0,'11111222,11111222,99999999' 
TABS,ioos:station:wmo:42049:1,2002-12-04T01:00:00Z,28.3507,-96.0058,2.0,244.8318877,52.08456681,-99999.0,'11111222,11111222,99999999' 
TABS,ioos:station:wmo:42049:1,2002-12-04T01:30:00Z,28.3507,-96.0058,2.0,244.0551685,51.20001562,-99999.0,'11111222,11111222,99999999' 
TABS,ioos:station:wmo:42049:1,2002-12-04T02:00:00Z,28.3507,-96.0058,2.0,239.6922299,50.15462192,-99999.0,'11111222,11111222,99999999' 
TABS,ioos:station:wmo:42049:1,2002-12-04T02:30:00Z,28.3507,-96.0058,2.0,239.9951273,52.55281629,-99999.0,'11111222,11111222,99999999' 
TABS,ioos:station:wmo:42049:1,2002-12-04T03:00:00Z,28.3507,-96.0058,2.0,237.5613856,49.38565075,-99999.0,'11111222,11111222,99999999' 
TABS,ioos:station:wmo:42049:1,2002-12-04T03:30:00Z,28.3507,-96.0058,2.0,236.4719474,47.95957152,-99999.0,'11111222,11111222,99999999' 
TABS,ioos:station:wmo:42049:1,2002-12-04T04:00:00Z,28.3507,-96.0058,2.0,238.6737937,45.04671797,-99999.0,'11111222,11111222,99999999' 
TABS,ioos:station:wmo:42049:1,2002-12-04T04:30:00Z,28.3507,-96.0058,2.0,239.6977076,43.50351825,-99999.0,'11111222,11111222,99999999' 
TABS,ioos:station:wmo:42049:1,2002-12-04T05:00:00Z,28.3507,-96.0058,2.0,236.6221983,45.2420214,-99999.0,'11111222,11111222,99999999' 
TABS,ioos:station:wmo:42049:1,2002-12-04T05:30:00Z,28.3507,-96.0058,2.0,237.59676,45.68276809,-99999.0,'11111222,11111222,99999999' 
TABS,ioos:station:wmo:42049:1,2002-12-04T06:00:00Z,28.3507,-96.0058,2.0,229.1316644,43.5720392,-99999.0,'11111222,11111222,99999999' 
TABS,ioos:station:wmo:42049:1,2002-12-04T06:30:00Z,28.3507,-96.0058,2.0,228.5977531,44.16809935,-99999.0,'11111222,11111222,99999999' 
TABS,ioos:station:wmo:42049:1,2002-12-04T07:00:00Z,28.3507,-96.0058,2.0,226.0300066,45.61576263,-99999.0,'11111222,11111222,99999999' 
TABS,ioos:station:wmo:42049:1,2002-12-04T07:30:00Z,28.3507,-96.0058,2.0,225.036685,43.79820316,-99999.0,'11111222,11111222,99999999' 
TABS,ioos:station:wmo:42049:1,2002-12-04T08:00:00Z,28.3507,-96.0058,2.0,223.518853,44.87384093,-99999.0,'11111222,11111222,99999999' 
TABS,ioos:station:wmo:42049:1,2002-12-04T08:30:00Z,28.3507,-96.0058,2.0,219.7134259,43.13311953,-99999.0,'11111222,11111222,99999999' 
TABS,ioos:station:wmo:42049:1,2002-12-04T09:00:00Z,28.3507,-96.0058,2.0,219.5192139,42.57151278,-99999.0,'11111222,11111222,99999999' 
TABS,ioos:station:wmo:42049:1,2002-12-04T09:30:00Z,28.3507,-96.0058,2.0,217.0571428,40.93821931,-99999.0,'11111222,11111222,99999999' 
TABS,ioos:station:wmo:42049:1,2002-12-04T10:00:00Z,28.3507,-96.0058,2.0,214.9825275,40.81413481,-99999.0,'11111222,11111222,99999999' 
TABS,ioos:station:wmo:42049:1,2002-12-04T10:30:00Z,28.3507,-96.0058,2.0,215.312838,40.63699915,-99999.0,'11111222,11111222,99999999' 
TABS,ioos:station:wmo:42049:1,2002-12-04T11:00:00Z,28.3507,-96.0058,2.0,212.6781539,43.04312372,-99999.0,'11111222,11111222,99999999' 
TABS,ioos:station:wmo:42049:1,2002-12-04T11:30:00Z,28.3507,-96.0058,2.0,207.5390595,42.607727,-99999.0,'11111222,11111222,99999999' 
TABS,ioos:station:wmo:42049:1,2002-12-04T12:00:00Z,28.3507,-96.0058,2.0,209.9208272,41.94006319,-99999.0,'11111222,11111222,99999999' 
TABS,ioos:station:wmo:42049:1,2002-12-04T12:30:00Z,28.3507,-96.0058,2.0,211.3771866,42.75228181,-99999.0,'11111222,11111222,99999999' 
TABS,ioos:station:wmo:42049:1,2002-12-04T13:00:00Z,28.3507,-96.0058,2.0,208.0932479,43.2564735,-99999.0,'11111222,11111222,99999999' 
TABS,ioos:station:wmo:42049:1,2002-12-04T13:30:00Z,28.3507,-96.0058,2.0,200.6332655,58.85536509,-99999.0,'11111222,11111222,99999999' 
TABS,ioos:station:wmo:42049:1,2002-12-04T14:00:00Z,28.3507,-96.0058,2.0,202.6243757,64.62307715,-99999.0,'11111222,11111222,99999999' 
TABS,ioos:station:wmo:42049:1,2002-12-04T14:30:00Z,28.3507,-96.0058,2.0,205.273959,65.9091769,-99999.0,'11111222,11111222,99999999' 
TABS,ioos:station:wmo:42049:1,2002-12-04T15:00:00Z,28.3507,-96.0058,2.0,207.8152092,67.01302709,-99999.0,'11111222,11111222,99999999' 
TABS,ioos:station:wmo:42049:1,2002-12-04T15:30:00Z,28.3507,-96.0058,2.0,210.1602573,70.10007489,-99999.0,'11111222,11111222,99999999' 
TABS,ioos:station:wmo:42049:1,2002-12-04T16:00:00Z,28.3507,-96.0058,2.0,210.7099296,68.98426632,-99999.0,'11111222,11111222,99999999' 